Location: Stony Creek
(40.9500°S, 175.8500°E)
Time: 08:53:50
(UTC+00:00)

Resurs 01 Rocket - Pass Details

Date: 15 May 2026
Orbit: 627 x 635 km, 97.7° (Epoch: 9 June)

Event Time Altitude Azimuth Distance (km) Brightness Sun altitude
Rises 18:39:13 0° 29° (NNE) 2,928 5.8 -7.6°
Reaches altitude 10° 18:41:28 10° 34° (NE) 2,028 5.1 -7.2°
Maximum altitude 18:45:42 47° 107° (ESE) 852 2.7 -6.4°
Drops below altitude 10° 18:50:00 10° 180° (S) 2,053 4.0 -5.7°
Sets 18:52:17 0° 186° (S) 2,969 4.8 -5.3°
